Regional Weather Roundup
Issued by NWS Goodland, KS

Home | Current Version | Previous Version | Graphics & Text | Print | Product List | Glossary On
Versions: 1 2 3 4 5 6 7 8 9 10 11 12 13 14 15 16 17 18 19 20 21 22 23 24 25 26 27 28 29 30 31 32 33 34 35 36 37 38 39 40 41 42 43 44 45 46 47 48 49 50
000
ASUS43 KGLD 030459
RWRGLD

GOODLAND FORECAST AREA HOURLY WEATHER ROUNDUP
NATIONAL WEATHER SERVICE GOODLAND KS
1100 PM MDT THU JUL 02 2015

...OFFICIAL OBSERVATIONS...

CITY           SKY/WX    TMP DP  RH WIND       PRES   REMARKS
GOODLAND KS    PTCLDY    65  55  70 E5        30.10S
HILL CITY KS   CLEAR     71  60  68 N9        30.01S
IMPERIAL NEB   CLEAR     65  59  81 CALM      30.09R
MCCOOK NEB     CLEAR     67  60  78 N5        30.04R
AKRON CO       PTCLDY    65  57  75 W8        30.18R
BURLINGTON CO  PTCLDY    68  55  63 E3        30.14S
LIMON CO       CLOUDY    66  57  72 E6        30.21S
$$

...UNOFFICIAL OBSERVATIONS...

CITY           SKY/WX    TMP DP  RH WIND       PRES   REMARKS
COLBY KS       CLEAR     70  59  68 E3        30.08F
GOVE KS          N/A     72  32  23 MISG        N/A
NORTON KS      CLEAR     64  55  72 N6        30.02S
SHARON SPRINGS   N/A     69  55  62 NE7         N/A
KIT CARSON CO    N/A     68  56  65 MISG        N/A
$$


USA.gov is the U.S. government's official web portal to all federal, state and local government web resources and services.